COSMOS 2251 DEB, 36557

Orbit data source: Space-Track

COSMOS 2251 DEB, 36557 is space debris in LEO originally from a launch on Wed, 16 Jun 1993 UTC launched from the Plesetsk Missile And Space Complex (PKMTR). The debris from Iridium 33, an American commercial communications satellite, has been tracked extensively since its accidental collision with the defunct Russian satellite Cosmos 2251 in 2009. This event, occurring at high speed in low Earth orbit (LEO), generated thousands of pieces of space debris, significantly increasing the risk of further collisions. The Iridium 33 debris cloud has impacted space traffic management and orbital debris mitigation strategies, making it a subject of ongoing study in space situational awareness.

Loading next visibility...
Identifier
36557, 1993-036BDT
Orbit
LEO
Country
Flag of CISCIS
Related business
Manufacturer
Unknown
Mission
Spacecraft
Bus & Motor
Unknown
Mass
Unknown
Launch date (UTC)
1993-06-16 (33 years ago)
Launch vehicle
Unknown
Launch site
Plesetsk Missile And Space Complex (PKMTR)
Object type
Payload
Rocket body
Debris
Shape & HBR
Unknown shape, 0.1 m
Radar Cross Section
Small (<0.1 m²)

Expand to show TLE details & history
Last TLE update: 11 hours ago

TLE from 11 hours ago
0 COSMOS 2251 DEB
1 36557U 93036BDT 26257.45262541  .00012341  00000-0  13414-2 0  9994
2 36557  73.9778 297.9680 0020158   4.8750 355.2623 14.87988821379865
Epoch: 2026-09-14T10:51Z
TLE epoch observation values (Epoch: 2026-09-14T10:51:46.835Z)
Latitude
0.00004°
Longitude
141.59015°
Altitude
592.861 km
Speed
7.571 km/s
True Right ascension
19h 51m 52s
True Declination
0° 00' 00"
Sunlit
Object was in full shadow at epoch
Visualization orbit readout
Latitude
Unknown
Longitude
Unknown
Altitude
Unknown
Speed
Unknown
Apparent Right ascension
Unknown
Apparent Declination
Unknown
Sunlit
N/A
Visualization observer readout
Local Sidereal Time
13:58:22
Azimuth
Unknown
Elevation
Unknown
Doppler factor
Unknown
Orbital elements
Apogee altitude
615.862 km
Perigee altitude
587.722 km
Semi-major axis
6,979.929 km
Eccentricity
0.00202
Inclination
73.9778°
RAAN
297.968°
Arg. of periapsis
4.875°
True anomaly
355.24317°
Mean anomaly
355.2623°
Eccentric anomaly
355.25274°
Mean motion
3.72192 °/min
Orbital period
96.72 mins
BSTAR
0.0013414
Loading maneuver chart data...
Computing Atmospheric mass density...

Documentation

Showing up to 5 results
|